Hourly Data Report for October 24, 2016

All times are specified in Local Standard Time (LST). Add 1 hour to adjust for Daylight Saving Time where and when it is observed.

CORAL HARBOUR A
NUNAVUT

64°11'36.000" N
83°21'34.000" W
62.20 m
2301002
71915
YZS

Download Data

Hourly Data (October 2016)
Hourly Data Report for October 24, 2016
Temp Definition
°C
Dew Point Temp Definition
°C
Rel Hum Definition
%
Wind Dir Definition
10's deg

Wind Spd Definition
km/h
Visibility Definition
km
Stn Press Definition
kPa
Hmdx Definition


Wind Chill Definition


Weather Definition


TIME
00:00 Legend Double Dagger -5.7 -8.6 80 6 16 24.1 102.68   -12 LegendNANA
01:00 Legend Double Dagger -5.8 -8.4 82 5 14 24.1 102.67   -11 Cloudy
02:00 Legend Double Dagger -5.8 -8.9 79 6 16 24.1 102.69   -12 LegendNANA
03:00
04:00 Legend Double Dagger -6.0 -8.9 80 5 16 24.1 102.71   -12 Cloudy
05:00 Legend Double Dagger -6.0 -8.6 82 6 14 24.1 102.70   -12 LegendNANA
06:00 Legend Double Dagger -6.4 -9.6 78 5 9 24.1 102.71   -11 LegendNANA
07:00 Legend Double Dagger -6.3 -9.5 78 3 11 24.1 102.71   -11 Cloudy
08:00 Legend Double Dagger -6.3 -9.2 80 2 11 24.1 102.70   -11 LegendNANA
09:00 Legend Double Dagger -6.1 -9.0 80 5 7 24.1 102.68   -9 LegendNANA
10:00 Legend Double Dagger -6.1 -9.0 80 1 14 24.1 102.67   -12 Cloudy
11:00 Legend Double Dagger -6.2 -9.8 76 4 14 24.1 102.69   -12 LegendNANA
12:00 Legend Double Dagger -6.2 -9.4 78 33 8 24.1 102.66   -10 LegendNANA
13:00 Legend Double Dagger -6.4 -9.5 79 34 8 24.1 102.64   -10 Cloudy
14:00 Legend Double Dagger -6.4 -9.6 78 34 14 24.1 102.61   -12 LegendNANA
15:00 Legend Double Dagger -6.9 -10.0 79 33 22 24.1 102.60   -14 LegendNANA
16:00 Legend Double Dagger -7.0 -10.1 79 31 13 24.1 102.59   -13 Cloudy
17:00 Legend Double Dagger -7.0 -9.4 83 31 20 24.1 102.57   -14 LegendNANA
18:00 Legend Double Dagger -7.8 -10.1 84 29 11 24.1 102.57   -13 LegendNANA
19:00 Legend Double Dagger -10.6 -12.2 88 30 15 24.1 102.54   -17 Cloudy
20:00 Legend Double Dagger -11.3 -13.1 87 31 13 24.1 102.49   -18 LegendNANA
21:00 Legend Double Dagger -10.3 -12.5 84 30 14 24.1 102.45   -17 LegendNANA
22:00 Legend Double Dagger -10.5 -12.9 83 29 14 24.1 102.41   -17 Mostly Cloudy
23:00 Legend Double Dagger -11.1 -13.0 86 30 18 24.1 102.36   -19 LegendNANA

Notes on Data Quality.

Legend

  • E = Estimated
  • M = Missing
  • NA = Not Available
  • ‡ = Partner data that is not subject to review by the National Climate Archives
Date modified: